Temp
81 80 73 75 76 74 74 73 74 74 76 76 76 76 76 76 76 76 76 76 77 78 78 78 77 78 78 78 77 76 75 75 75 76 76 77 77 76 75 75 76 81 75
84 80 72 74 75 74 73 74 75 75 76 76 76 76 76 76 76 76 76 76 77 78 78 78 77 78 77 76 75 74 74 74 74 74 75 75 75 76 74 74 75 78 75
81 79 78 74 74 74 74 74 75 77 76 76 76 76 76 76 76 76 76 76 77 78 78 78 78 77 76 75 74 74 73 73 73 73 75 83 79 75 74 74 74 74 74
79 79 79 73 74 74 74 74 75 76 76 76 76 76 76 76 76 76 76 76 77 78 78 78 78 76 75 73 73 72 72 72 71 73 82 82 80 74 74 74 74 74 74
78 78 78 72 72 73 74 74 75 76 75 75 75 75 76 76 76 76 75 75 77 78 78 78 77 75 72 72 71 71 71 70 70 77 82 81 80 76 74 74 73 73 74
78 78 74 71 72 73 74 74 75 75 75 75 74 75 76 75 75 76 76 75 76 76 78 77 75 72 71 70 70 70 70 69 72 81 80 77 77 74 74 73 72 72 72
78 77 74 70 71 73 74 74 74 74 74 74 74 74 74 74 74 74 73 74 75 75 76 74 72 71 70 70 70 69 68 69 79 79 79 79 77 74 74 73 72 72 72
76 75 75 71 71 72 73 73 72 72 73 73 73 74 73 73 72 71 72 73 74 74 74 72 71 70 70 69 69 68 67 69 77 78 79 80 73 73 73 72 71 71 71
75 74 75 73 73 70 70 70 70 70 71 70 72 72 72 71 70 71 73 73 73 72 72 70 70 69 69 69 68 67 66 69 78 78 78 79 72 72 73 72 71 70 70
74 74 72 72 72 74 75 69 69 69 69 70 70 70 69 69 70 71 71 72 73 72 72 70 69 69 68 67 67 66 66 67 78 77 78 77 71 72 72 71 71 70 70
72 73 72 70 71 72 74 72 69 69 69 69 70 69 68 76 75 74 72 70 72 71 70 69 68 68 67 66 66 66 67 77 76 77 77 69 72 73 72 71 70 70 70
72 72 70 70 70 70 71 72 74 72 74 75 75 74 74 74 75 76 72 69 70 69 69 68 68 67 68 75 73 67 76 75 75 74 76 69 71 73 71 70 70 70 70
75 73 71 69 69 69 69 71 71 70 71 71 74 74 72 71 70 73 73 73 72 70 70 71 71 74 74 74 74 73 73 73 75 75 73 68 71 72 71 70 70 70 69
72 73 72 70 68 68 69 69 70 71 69 68 69 70 68 67 69 70 71 71 72 74 71 72 73 72 72 72 72 71 72 73 73 73 72 67 69 71 71 70 70 69 69
72 72 72 71 70 68 67 67 67 68 68 68 67 67 67 67 68 65 66 67 69 70 72 70 70 69 70 70 70 71 70 71 70 72 74 66 67 70 70 70 70 70 70
74 73 73 71 71 70 68 67 66 66 67 67 66 66 67 67 67 66 65 65 66 67 72 69 69 66 70 71 70 70 70 71 72 71 73 73 65 67 69 70 70 70 70
77 75 72 71 71 69 69 68 66 66 67 68 69 66 67 67 65 66 64 64 65 65 65 67 69 68 70 71 70 70 70 69 71 71 73 73 70 64 66 68 69 69 69
77 75 73 72 69 69 68 68 64 65 65 66 66 67 66 67 66 65 64 64 64 63 64 64 69 68 69 70 69 70 70 70 70 71 72 73 73 74 67 66 67 68 68
76 74 71 70 68 68 69 67 65 64 63 63 64 65 66 66 67 65 64 63 62 61 63 67 69 69 67 69 69 69 70 70 69 71 70 70 71 72 73 65 64 65 66
72 72 70 69 68 68 67 65 64 63 62 63 63 64 64 65 65 65 64 62 61 60 63 66 67 69 69 68 69 67 68 69 69 69 70 71 71 70 71 71 70 69 63
69 69 68 67 67 66 63 61 61 60 61 61 63 65 66 65 64 63 63 61 61 59 64 67 67 65 66 68 65 64 65 66 66 68 70 70 69 69 69 69 71 71 69
68 67 67 67 65 67 67 65 65 63 62 63 65 65 64 64 63 63 62 61 60 60 61 63 66 66 66 66 66 65 58 61 64 65 67 68 67 70 68 68 69 69 70
66 65 66 67 64 67 68 67 67 63 62 62 62 62 62 62 63 61 61 61 60 60 60 64 66 66 63 65 67 67 59 60 60 64 64 67 67 67 68 65 66 68 69
66 67 67 65 65 65 67 67 65 62 60 62 62 62 62 62 61 61 61 59 59 61 60 65 65 65 64 62 65 67 70 66 63 56 62 64 66 65 64 63 67 67 68
66 65 66 65 64 63 63 65 66 61 62 65 64 62 63 63 61 61 59 58 57 60 63 63 65 66 68 67 65 65 65 65 65 64 60 61 64 66 66 66 69 68 64
63 63 63 63 62 61 62 64 65 62 61 62 63 61 63 62 61 61 59 58 57 59 60 63 63 65 65 67 69 67 66 65 64 65 63 63 64 65 67 65 66 66 66
MSLP
1008.53 1009.00 1009.60 1009.89 1010.19 1010.56 1010.70 1010.90 1011.13 1011.32 1011.46 1011.66 1012.02 1012.41 1012.81 1013.14 1013.55 1013.82 1014.00 1014.37 1014.77 1015.01 1015.28 1015.58 1015.76 1016.04 1016.25 1016.58 1016.87 1017.17 1017.53 1017.82 1018.00 1018.14 1018.37 1018.65 1018.88 1019.12 1019.33 1019.33 1019.19 1019.36 1019.83
1008.05 1008.86 1009.53 1009.89 1010.20 1010.49 1010.57 1010.90 1011.16 1011.44 1011.74 1012.03 1012.34 1012.64 1012.95 1013.33 1013.67 1013.96 1014.11 1014.31 1014.71 1015.08 1015.36 1015.62 1015.95 1016.21 1016.53 1017.02 1017.23 1017.50 1017.88 1018.23 1018.43 1018.60 1018.80 1019.08 1019.48 1019.56 1019.77 1019.79 1019.73 1020.09 1020.30
1008.30 1008.88 1009.51 1009.99 1010.33 1010.54 1010.70 1010.89 1011.24 1011.49 1011.81 1012.18 1012.58 1012.91 1013.22 1013.49 1013.86 1014.20 1014.35 1014.61 1014.90 1015.30 1015.64 1015.89 1015.94 1016.33 1016.85 1017.28 1017.60 1017.90 1018.29 1018.54 1018.86 1019.04 1019.10 1019.00 1019.56 1020.01 1020.17 1020.33 1020.41 1020.57 1020.78
1008.18 1008.89 1009.28 1009.91 1010.39 1010.67 1010.92 1010.90 1011.24 1011.63 1011.88 1012.30 1012.64 1013.01 1013.30 1013.72 1014.13 1014.43 1014.55 1014.79 1015.03 1015.42 1015.94 1016.27 1016.58 1016.78 1017.15 1017.52 1017.93 1018.27 1018.62 1018.96 1019.27 1019.33 1019.15 1019.38 1019.91 1020.38 1020.58 1020.72 1020.80 1021.00 1021.19
1008.39 1008.56 1009.15 1009.74 1010.39 1010.79 1011.14 1011.10 1011.10 1011.59 1011.92 1012.22 1012.58 1012.96 1013.34 1013.71 1014.12 1014.56 1014.89 1015.00 1015.15 1015.55 1015.86 1016.30 1016.86 1017.24 1017.66 1017.96 1018.27 1018.67 1018.92 1019.21 1019.46 1019.37 1019.51 1019.74 1020.08 1020.76 1020.90 1021.16 1021.26 1021.42 1021.49
1008.50 1009.00 1009.39 1009.63 1010.26 1010.79 1011.18 1011.44 1011.26 1011.70 1011.91 1012.05 1012.34 1012.92 1013.64 1014.17 1013.89 1014.37 1015.14 1015.46 1015.81 1016.13 1016.34 1016.68 1017.04 1017.75 1018.32 1018.33 1018.58 1018.94 1019.24 1019.49 1019.58 1019.60 1019.87 1020.47 1020.58 1021.15 1021.42 1021.68 1021.79 1021.85 1022.05
1008.46 1008.89 1009.59 1009.64 1009.95 1010.64 1011.12 1011.48 1011.57 1011.67 1012.09 1012.22 1012.40 1012.66 1013.18 1013.69 1015.07 1015.09 1015.83 1015.89 1016.36 1016.65 1016.84 1017.14 1017.56 1017.87 1018.71 1018.86 1018.91 1019.31 1019.56 1019.81 1019.56 1019.92 1020.17 1020.51 1020.92 1021.35 1021.66 1021.83 1022.03 1022.15 1022.34
1008.24 1008.95 1009.50 1009.75 1009.89 1010.22 1010.84 1011.32 1011.92 1011.77 1012.12 1012.27 1012.50 1012.74 1013.25 1013.59 1014.89 1014.78 1016.05 1016.01 1016.36 1016.52 1016.86 1017.55 1017.82 1018.23 1018.90 1019.22 1019.28 1019.64 1019.95 1020.10 1020.08 1020.27 1020.52 1020.73 1021.43 1021.61 1021.96 1022.12 1022.45 1022.67 1022.75
1008.65 1009.08 1009.48 1009.89 1009.94 1010.17 1010.35 1011.06 1011.77 1012.24 1012.19 1012.34 1012.56 1012.85 1013.31 1013.49 1014.31 1013.86 1015.08 1015.48 1016.42 1016.75 1016.67 1017.76 1018.12 1018.52 1019.17 1019.41 1019.65 1020.00 1020.36 1020.37 1020.30 1020.65 1020.85 1021.18 1021.85 1022.10 1022.24 1022.56 1023.14 1023.28 1023.31
1008.63 1008.84 1009.22 1009.60 1010.02 1010.12 1010.27 1010.60 1011.36 1012.18 1012.51 1012.69 1012.70 1012.97 1013.41 1013.92 1014.41 1014.29 1014.91 1015.35 1015.55 1015.28 1017.04 1017.83 1018.40 1018.72 1019.44 1019.64 1019.85 1020.27 1020.63 1020.75 1020.56 1020.87 1021.19 1021.63 1022.22 1022.45 1022.80 1022.89 1023.48 1023.64 1023.86
1008.45 1008.77 1009.22 1009.51 1009.81 1010.08 1010.22 1010.46 1010.92 1011.65 1012.30 1012.84 1013.04 1013.12 1013.52 1013.86 1014.22 1014.69 1014.92 1015.42 1015.45 1015.19 1016.60 1017.74 1018.45 1018.96 1019.63 1020.03 1020.16 1020.44 1020.73 1020.63 1020.87 1021.09 1021.36 1022.17 1022.48 1022.74 1022.98 1023.25 1023.76 1023.93 1024.16
1007.81 1008.16 1008.81 1009.34 1009.73 1010.00 1010.22 1010.22 1010.64 1011.07 1011.74 1012.38 1013.02 1013.24 1013.40 1013.75 1014.18 1014.44 1014.96 1015.52 1015.39 1015.58 1016.38 1017.44 1018.46 1019.21 1019.68 1019.97 1020.33 1020.73 1020.61 1020.97 1021.12 1021.36 1021.66 1022.30 1022.54 1023.00 1023.27 1023.66 1023.84 1024.13 1024.38
1007.08 1007.76 1008.36 1008.95 1009.37 1009.78 1010.01 1010.12 1010.36 1010.71 1011.25 1011.99 1012.62 1013.07 1013.40 1013.95 1014.41 1014.71 1015.15 1015.64 1015.59 1015.77 1016.23 1017.03 1018.31 1019.05 1019.28 1019.68 1020.08 1020.46 1020.82 1021.17 1021.49 1021.65 1022.07 1022.54 1022.73 1023.23 1023.36 1023.66 1023.99 1024.31 1024.87
1007.27 1007.63 1008.18 1008.75 1009.01 1009.28 1009.51 1010.02 1010.09 1010.59 1010.94 1011.56 1012.36 1012.92 1013.42 1013.76 1014.06 1014.47 1014.90 1015.25 1015.43 1015.67 1016.46 1016.96 1017.79 1018.82 1019.44 1019.73 1020.22 1020.60 1020.94 1021.31 1021.74 1021.99 1022.24 1022.71 1023.02 1023.41 1023.38 1023.84 1024.27 1024.56 1024.95
1006.66 1006.99 1007.44 1008.09 1008.54 1008.99 1009.38 1009.76 1010.16 1010.57 1010.75 1011.02 1011.81 1012.68 1013.13 1013.46 1013.91 1014.02 1014.68 1014.93 1015.14 1015.58 1016.22 1016.89 1017.72 1018.73 1019.43 1019.88 1020.33 1020.68 1021.20 1021.49 1021.89 1022.11 1022.32 1022.93 1023.12 1023.32 1023.69 1024.16 1024.50 1024.78 1025.04
1005.64 1005.92 1006.59 1007.11 1007.67 1008.27 1008.77 1009.33 1009.87 1010.25 1010.74 1010.98 1011.22 1011.85 1012.42 1012.92 1013.24 1013.75 1014.24 1014.77 1015.05 1015.50 1016.12 1016.85 1017.27 1018.61 1019.18 1019.74 1020.28 1020.81 1021.24 1021.50 1022.00 1022.34 1022.37 1022.85 1023.21 1023.38 1023.88 1024.27 1024.63 1024.93 1025.11
1004.59 1004.98 1005.33 1005.90 1006.68 1007.31 1007.94 1008.68 1009.35 1009.86 1010.18 1010.63 1010.70 1011.30 1011.74 1012.24 1012.72 1012.99 1013.66 1014.22 1014.89 1015.28 1016.29 1017.00 1017.47 1018.43 1019.09 1019.62 1020.18 1020.92 1021.31 1021.82 1022.22 1022.37 1022.51 1022.67 1023.32 1023.80 1024.09 1024.32 1024.67 1024.95 1025.16
1004.08 1004.30 1004.53 1005.00 1005.65 1006.33 1007.06 1007.93 1008.75 1009.41 1009.64 1010.24 1010.38 1010.83 1011.17 1011.54 1012.16 1012.81 1013.40 1013.90 1014.36 1015.12 1015.87 1016.80 1017.11 1018.22 1018.92 1019.57 1020.16 1020.68 1021.21 1021.63 1022.32 1022.39 1022.60 1022.82 1023.15 1023.64 1024.23 1024.44 1024.69 1024.95 1025.19
1003.44 1003.65 1003.77 1004.23 1004.75 1005.41 1006.45 1007.35 1008.22 1008.82 1009.30 1009.85 1010.11 1010.36 1010.69 1011.09 1011.52 1012.11 1012.74 1013.17 1013.96 1014.83 1015.52 1016.26 1016.90 1017.57 1018.59 1019.36 1020.06 1020.61 1021.26 1021.49 1022.39 1022.41 1022.72 1023.01 1023.32 1023.66 1023.79 1024.52 1024.72 1024.87 1025.21
1002.81 1002.85 1003.04 1003.61 1004.12 1004.87 1005.95 1006.92 1007.84 1008.53 1009.01 1009.39 1009.80 1009.86 1010.33 1010.64 1011.08 1011.45 1012.00 1012.22 1013.34 1014.52 1015.23 1015.95 1016.58 1017.47 1018.16 1019.05 1019.94 1020.87 1021.47 1021.67 1022.30 1022.47 1022.69 1022.98 1023.35 1023.78 1023.99 1024.21 1024.64 1024.87 1025.24
1002.43 1002.48 1002.72 1003.14 1003.69 1004.40 1005.18 1006.04 1007.09 1007.81 1008.63 1008.96 1009.25 1009.43 1009.81 1010.12 1010.46 1010.62 1010.30 1011.70 1012.68 1013.78 1014.49 1015.31 1016.31 1017.09 1018.24 1018.92 1019.93 1021.04 1021.60 1021.98 1022.45 1022.42 1022.54 1022.80 1023.18 1023.66 1024.00 1024.21 1024.12 1024.46 1024.91
1002.15 1002.48 1002.90 1003.01 1003.51 1003.84 1004.34 1005.24 1006.04 1007.17 1007.89 1008.30 1008.54 1008.84 1009.04 1009.36 1009.70 1009.76 1010.01 1010.41 1011.95 1013.29 1014.26 1014.93 1015.44 1016.52 1017.59 1018.58 1018.70 1019.78 1020.84 1022.00 1022.23 1022.40 1022.46 1022.71 1022.96 1023.27 1023.61 1023.93 1023.98 1024.32 1024.68
1002.01 1002.39 1002.59 1002.80 1003.42 1003.60 1004.19 1005.00 1005.84 1006.82 1007.44 1007.80 1007.96 1008.33 1008.53 1008.66 1008.80 1009.17 1009.47 1010.37 1011.47 1012.52 1013.71 1014.25 1015.01 1015.62 1016.57 1018.11 1018.35 1018.08 1019.32 1019.87 1021.18 1021.91 1022.25 1022.48 1022.79 1022.99 1023.22 1023.81 1023.82 1024.02 1024.32
1001.85 1002.00 1002.20 1002.58 1003.05 1003.33 1003.75 1004.36 1005.22 1005.72 1006.60 1006.93 1007.32 1007.94 1008.24 1008.51 1008.54 1008.75 1009.54 1009.95 1011.14 1012.06 1013.11 1013.66 1014.65 1015.17 1015.90 1016.80 1017.97 1018.23 1018.06 1018.92 1019.63 1021.03 1021.68 1021.96 1022.29 1022.52 1022.94 1023.25 1023.21 1023.53 1023.90
1001.68 1001.83 1002.08 1002.48 1002.80 1003.18 1003.29 1003.66 1004.64 1005.46 1006.01 1006.48 1007.07 1007.72 1008.09 1008.52 1008.80 1009.12 1009.50 1010.26 1010.94 1011.81 1012.49 1013.30 1014.39 1014.98 1015.37 1015.94 1016.78 1017.55 1018.09 1018.70 1019.01 1019.35 1019.90 1021.03 1021.74 1021.78 1022.13 1022.31 1022.57 1022.88 1023.46
1002.11 1002.11 1002.25 1002.38 1002.79 1003.42 1003.65 1003.58 1003.92 1004.90 1005.48 1006.16 1006.77 1007.23 1007.63 1008.19 1008.73 1009.23 1009.70 1010.14 1010.99 1011.63 1012.38 1013.25 1013.93 1014.57 1015.06 1015.62 1016.18 1016.83 1017.04 1017.48 1018.13 1018.54 1019.25 1020.06 1020.48 1020.89 1021.45 1021.86 1022.06 1022.31 1022.57
Wind_Speed
9 10 12 13 13 8 8 8 7 7 15 18 19 19 19 19 18 17 17 17 18 19 19 19 18 18 19 20 18 17 18 16 17 18 18 19 19 19 18 15 16 18 17
9 11 12 12 14 10 11 10 12 10 14 17 18 19 19 19 18 17 17 17 19 19 20 20 18 19 20 18 15 17 18 13 14 17 18 18 17 18 18 14 15 17 17
11 12 13 12 12 13 12 13 14 16 16 18 18 18 19 18 18 16 17 17 18 19 19 20 20 21 20 17 17 18 17 16 15 15 13 13 15 18 19 16 17 18 18
13 12 13 12 12 14 12 15 16 17 18 18 19 19 19 18 17 16 16 17 18 18 18 18 19 20 20 18 18 18 17 16 13 12 12 13 14 18 18 17 17 18 18
11 13 13 13 13 12 12 14 18 17 18 19 19 19 19 19 19 17 15 14 16 17 18 17 18 20 18 18 18 18 17 16 14 12 13 12 12 16 18 18 18 16 16
11 11 14 13 14 14 12 13 18 18 20 20 20 20 17 17 19 17 16 12 13 13 15 16 18 19 15 18 18 18 17 15 13 13 13 11 12 16 16 16 16 16 17
11 11 13 14 15 15 14 14 15 19 19 18 20 23 20 18 8 14 7 11 10 9 11 14 15 19 15 16 17 16 16 13 13 12 12 12 13 17 17 16 15 14 15
12 11 11 18 15 17 15 13 12 15 19 18 20 18 20 24 20 20 14 14 11 13 12 16 18 18 15 15 16 15 14 13 11 12 11 10 15 17 17 17 15 13 15
9 11 10 13 15 13 14 12 11 11 14 14 13 16 15 23 23 23 22 20 13 10 15 16 17 17 15 15 15 14 13 11 12 9 9 9 13 16 17 18 13 13 15
9 10 11 12 13 13 14 13 13 11 12 12 11 15 14 15 17 18 19 19 21 21 15 18 16 17 14 15 15 15 13 11 11 11 8 9 15 17 16 17 15 15 15
8 10 11 12 11 13 13 11 14 15 12 10 11 14 13 13 15 17 16 16 18 20 21 19 17 16 14 13 14 14 14 7 10 8 7 13 15 16 17 17 16 15 16
14 14 12 11 10 10 8 11 14 13 12 12 12 14 10 12 12 14 14 16 19 22 21 21 17 14 15 11 9 11 6 9 8 8 7 12 15 16 17 16 16 16 15
12 11 14 11 11 11 9 8 6 6 7 8 15 13 11 8 8 8 7 8 9 17 11 16 14 11 13 10 10 8 9 9 6 7 11 10 13 15 17 15 15 15 14
8 10 12 14 12 12 7 8 7 7 6 7 8 11 8 6 9 9 7 9 9 10 12 11 11 12 13 12 11 10 10 8 7 6 10 10 13 15 16 15 14 15 14
13 12 14 14 14 12 12 7 6 7 6 8 9 10 8 9 9 9 7 8 9 9 13 11 12 11 11 11 10 10 11 10 10 7 7 9 12 12 15 14 14 14 14
15 15 14 18 16 14 13 12 8 6 7 6 7 11 14 10 10 9 8 8 9 9 11 11 12 9 10 10 10 10 10 10 11 11 8 9 10 10 12 14 14 13 14
13 14 18 19 19 18 16 13 9 9 10 9 9 10 16 14 12 11 10 9 9 10 11 9 13 9 10 10 12 10 9 10 10 11 9 8 9 8 9 11 11 12 11
14 13 15 15 19 19 16 12 9 9 8 8 8 9 13 16 15 12 10 10 10 10 11 11 13 11 10 10 10 9 8 9 10 11 9 8 8 8 8 9 11 10 11
14 14 15 18 20 19 16 11 11 11 7 7 7 8 11 14 15 12 11 11 12 10 11 12 12 13 11 10 10 8 8 8 9 8 10 10 9 8 7 9 9 10 9
12 13 14 15 18 18 12 10 8 7 6 7 7 9 11 9 14 15 12 14 13 10 11 12 15 12 12 11 9 8 7 6 7 8 9 8 9 9 8 9 8 7 9
11 10 13 16 16 14 12 10 7 8 7 7 7 13 14 12 13 13 10 15 14 13 15 16 14 16 11 11 11 7 6 5 7 6 7 8 9 9 9 9 6 6 7
11 8 12 15 16 16 12 10 6 7 5 8 8 10 11 13 14 11 15 17 17 13 14 17 16 13 11 12 9 10 6 4 6 6 6 8 9 8 9 9 9 9 8
10 10 12 13 15 15 14 11 7 6 2 5 7 6 7 7 12 8 13 15 16 14 14 16 16 17 12 12 13 6 6 6 7 5 9 8 8 7 7 7 9 10 10
12 10 11 13 16 15 17 13 14 8 6 5 5 5 6 7 8 13 12 14 14 12 14 15 13 14 14 14 11 3 5 6 7 5 6 9 8 9 9 8 9 10 11
9 8 11 14 15 14 14 15 12 9 6 6 6 9 9 10 9 11 12 13 12 10 13 16 16 15 12 12 11 8 5 4 5 3 6 8 7 9 8 8 8 8 9
8 5 9 12 14 14 14 16 16 12 10 8 9 7 9 8 8 11 11 9 11 10 13 13 14 16 13 13 12 10 9 7 7 4 3 8 8 6 8 7 8 8 7
Wind_Direction
192 155 166 170 172 159 143 137 133 153 153 148 146 147 143 141 141 141 141 143 143 137 135 132 130 130 129 126 126 122 114 110 113 113 110 106 106 105 99 98 112 102 99
149 160 162 168 174 161 151 143 152 133 146 145 146 146 143 142 142 144 143 143 142 140 138 133 130 127 125 124 116 106 109 111 109 109 107 102 105 106 99 93 94 99 96
144 155 164 168 175 173 161 146 151 154 145 145 146 145 144 145 143 141 140 145 145 143 136 136 133 129 127 120 114 112 109 107 104 103 121 113 110 107 102 98 101 101 101
149 156 166 163 175 177 167 154 157 163 151 146 146 147 148 145 142 142 138 138 138 145 142 140 132 129 128 122 119 114 109 105 101 125 119 119 115 112 110 108 105 103 103
159 158 166 163 167 179 175 163 160 161 156 147 150 153 152 150 147 149 142 140 144 145 149 148 137 130 125 122 120 116 112 109 108 128 121 124 121 114 110 105 105 104 101
164 166 166 156 166 180 180 171 163 164 166 163 156 154 152 156 156 154 150 127 136 148 148 143 137 123 124 127 124 121 118 114 135 128 124 115 117 111 112 105 95 94 101
170 169 170 166 168 176 186 175 167 165 169 169 161 160 156 129 189 127 148 121 141 146 145 138 133 120 132 131 127 122 118 124 135 134 132 132 121 122 116 103 93 84 89
166 166 179 180 176 177 183 178 174 166 173 173 172 163 160 155 151 145 186 156 169 159 142 145 131 132 139 135 126 121 118 127 137 134 136 133 125 124 116 105 93 90 94
159 169 178 186 186 181 177 172 171 173 171 180 178 167 179 154 173 159 170 157 172 148 137 147 136 134 143 134 124 118 115 132 137 136 136 130 125 121 120 116 114 108 104
176 183 179 184 193 193 188 169 166 175 180 180 167 158 153 157 174 154 156 163 174 145 150 139 140 138 142 136 129 122 118 133 139 138 135 119 128 131 127 123 129 125 115
196 196 188 190 195 197 193 182 168 175 182 177 170 161 159 176 170 164 166 173 171 142 144 137 140 140 141 136 129 124 145 146 143 143 136 135 139 136 130 131 128 127 122
203 199 192 189 193 196 201 183 189 183 189 191 191 180 174 171 173 173 174 185 156 142 137 138 139 142 157 158 141 135 152 149 148 142 138 145 147 142 135 133 135 127 122
213 199 194 187 190 196 195 194 186 183 178 187 193 187 179 171 175 180 184 187 157 141 146 145 145 168 169 166 161 160 151 153 152 147 143 154 146 145 138 134 134 128 133
225 215 203 199 195 195 191 199 186 184 167 171 182 187 185 178 178 178 181 177 169 165 155 160 157 166 171 166 163 158 154 165 150 155 148 152 149 151 138 141 142 139 144
239 222 214 198 201 198 197 190 190 185 179 175 170 184 190 192 190 167 183 172 170 162 168 164 158 162 166 162 162 159 165 164 150 157 155 152 142 146 142 154 152 153 152
243 233 212 206 200 192 196 190 189 176 176 175 169 188 190 188 187 188 171 171 169 164 173 168 154 152 165 166 161 166 171 158 166 165 161 156 139 146 158 161 163 159 157
250 238 215 206 196 194 193 189 185 191 185 201 194 190 191 193 189 188 178 166 176 160 156 158 152 147 161 170 166 168 159 159 174 169 165 156 151 156 165 157 159 162 162
260 243 223 205 196 193 190 182 181 189 185 196 203 198 197 193 192 189 185 179 161 153 157 162 160 159 165 171 164 165 168 161 182 172 169 167 168 171 170 160 160 164 171
257 257 229 202 195 189 187 180 180 185 178 190 200 197 202 199 190 189 193 170 156 158 163 167 164 165 165 172 170 156 175 159 188 177 176 176 176 183 177 163 167 167 177
266 258 221 199 192 183 172 168 174 182 180 192 197 197 204 199 200 201 190 166 155 155 165 169 163 164 164 164 155 158 168 159 192 188 181 181 183 186 187 187 182 186 194
275 245 207 194 188 172 172 162 169 185 195 199 197 206 211 216 217 210 191 163 160 162 171 167 156 155 155 155 139 141 140 157 202 191 185 192 190 193 196 199 191 202 201
278 243 216 199 186 184 173 169 162 173 191 208 199 209 213 218 217 217 188 159 166 164 169 167 164 158 152 167 166 161 152 172 210 205 199 204 196 197 202 205 204 212 225
270 233 212 200 189 182 172 161 146 139 135 191 194 198 207 200 204 186 174 165 159 160 171 170 165 169 157 179 176 162 154 184 162 187 209 212 203 206 213 215 217 222 230
289 228 209 193 184 178 170 168 174 169 176 198 165 163 176 155 155 156 156 150 158 161 168 171 169 174 158 169 183 176 169 139 185 166 205 209 212 213 210 212 222 224 235
316 220 201 192 183 175 172 171 175 172 175 171 163 163 174 160 155 147 151 156 153 161 166 169 173 180 179 166 177 167 149 161 160 159 172 184 210 215 217 221 225 225 223
337 227 201 190 188 181 183 178 176 174 172 163 182 173 180 165 162 158 148 151 154 158 163 174 177 177 178 180 180 185 175 173 173 160 144 182 208 193 210 210 218 230 228